Time,TemperatureF,DewpointF,PressureIn,WindDirection,WindDirectionDegrees,WindSpeedMPH,WindSpeedGustMPH,Humidity,HourlyPrecipIn,Conditions,Clouds,dailyrainin,SoftwareType,DateUTC
2013-03-02 00:00:00,39.1,31.9,29.76,WNW,288,0.0,0.0,75,0.00,,---,0.00,VWS V14.01,2013-03-02 05:00:00,
2013-03-02 00:10:00,38.6,31.7,29.76,West,278,0.0,0.0,76,0.00,,---,0.00,VWS V14.01,2013-03-02 05:10:00,
2013-03-02 00:20:00,38.3,31.7,29.76,West,278,0.0,0.0,77,0.00,,---,0.00,VWS V14.01,2013-03-02 05:20:00,
2013-03-02 00:30:00,37.8,31.9,29.76,West,278,0.0,0.0,79,0.00,,---,0.00,VWS V14.01,2013-03-02 05:30:00,
2013-03-02 00:40:00,37.2,31.9,29.76,West,278,0.0,0.0,81,0.00,,---,0.00,VWS V14.01,2013-03-02 05:40:00,
2013-03-02 00:50:00,36.9,31.6,29.75,West,278,0.0,0.0,81,0.00,,---,0.00,VWS V14.01,2013-03-02 05:50:00,
2013-03-02 01:00:00,36.9,31.6,29.75,West,278,0.0,0.0,81,0.00,,---,0.00,VWS V14.01,2013-03-02 06:00:00,
2013-03-02 01:10:00,36.6,31.9,29.75,West,278,0.0,0.0,83,0.00,,---,0.00,VWS V14.01,2013-03-02 06:10:00,
2013-03-02 01:20:00,36.0,32.5,29.76,West,278,0.0,0.0,87,0.00,,---,0.00,VWS V14.01,2013-03-02 06:20:00,
2013-03-02 01:30:00,35.8,31.7,29.76,West,278,0.0,0.0,85,0.00,,---,0.00,VWS V14.01,2013-03-02 06:30:00,
2013-03-02 01:40:00,35.5,31.7,29.76,West,278,0.0,0.0,86,0.00,,---,0.00,VWS V14.01,2013-03-02 06:40:00,
2013-03-02 01:50:00,35.3,32.1,29.77,West,278,0.0,0.0,88,0.00,,---,0.00,VWS V14.01,2013-03-02 06:50:00,
2013-03-02 02:00:00,35.3,31.2,29.77,West,278,0.0,0.0,85,0.00,,---,0.00,VWS V14.01,2013-03-02 07:00:00,
2013-03-02 02:10:00,35.5,31.1,29.77,West,278,0.0,0.0,84,0.00,,---,0.00,VWS V14.01,2013-03-02 07:10:00,
2013-03-02 02:20:00,35.9,31.5,29.76,West,278,0.0,0.0,84,0.00,,---,0.00,VWS V14.01,2013-03-02 07:20:00,
2013-03-02 02:30:00,36.0,31.0,29.76,West,278,0.0,0.0,82,0.00,,---,0.00,VWS V14.01,2013-03-02 07:30:00,
2013-03-02 02:40:00,36.3,30.7,29.76,West,278,0.0,0.0,80,0.00,,---,0.00,VWS V14.01,2013-03-02 07:40:00,
2013-03-02 02:50:00,36.5,30.6,29.75,West,278,0.0,0.0,79,0.00,,---,0.00,VWS V14.01,2013-03-02 07:50:00,
2013-03-02 03:00:00,36.3,30.4,29.74,West,278,0.0,0.0,79,0.00,,---,0.00,VWS V14.01,2013-03-02 08:00:00,
2013-03-02 03:10:00,36.0,30.8,29.74,West,278,0.0,0.0,81,0.00,,---,0.00,VWS V14.01,2013-03-02 08:10:00,
2013-03-02 03:20:00,35.8,30.9,29.75,West,278,0.0,0.0,82,0.00,,---,0.00,VWS V14.01,2013-03-02 08:20:00,
2013-03-02 03:30:00,35.8,30.2,29.74,West,278,0.0,0.0,80,0.00,,---,0.00,VWS V14.01,2013-03-02 08:30:00,
2013-03-02 03:40:00,35.9,30.6,29.74,West,278,0.0,0.0,81,0.00,,---,0.00,VWS V14.01,2013-03-02 08:40:00,
2013-03-02 03:50:00,36.0,30.4,29.74,West,278,0.0,0.0,80,0.00,,---,0.00,VWS V14.01,2013-03-02 08:50:00,
2013-03-02 04:00:00,36.0,30.4,29.74,West,278,0.0,0.0,80,0.00,,---,0.00,VWS V14.01,2013-03-02 09:00:00,
2013-03-02 04:10:00,35.9,30.0,29.74,West,278,0.0,0.0,79,0.00,,---,0.00,VWS V14.01,2013-03-02 09:10:00,
2013-03-02 04:20:00,35.8,30.9,29.74,West,278,0.0,0.0,82,0.00,,---,0.00,VWS V14.01,2013-03-02 09:20:00,
2013-03-02 04:30:00,35.2,31.1,29.74,West,278,0.0,0.0,85,0.00,,---,0.00,VWS V14.01,2013-03-02 09:30:00,
2013-03-02 04:40:00,34.6,30.3,29.74,West,278,0.0,0.0,84,0.00,,---,0.00,VWS V14.01,2013-03-02 09:40:00,
2013-03-02 04:50:00,34.4,30.1,29.74,West,278,0.0,0.0,84,0.00,,---,0.00,VWS V14.01,2013-03-02 09:50:00,
2013-03-02 05:00:00,34.3,30.0,29.74,West,278,0.0,0.0,84,0.00,,---,0.00,VWS V14.01,2013-03-02 10:00:00,
2013-03-02 05:10:00,34.1,30.1,29.74,West,278,0.0,0.0,85,0.00,,---,0.00,VWS V14.01,2013-03-02 10:10:00,
2013-03-02 05:20:00,33.7,30.0,29.74,West,278,0.0,0.0,86,0.00,,---,0.00,VWS V14.01,2013-03-02 10:20:00,
2013-03-02 05:30:00,33.4,30.0,29.74,West,278,0.0,0.0,87,0.00,,---,0.00,VWS V14.01,2013-03-02 10:30:00,
2013-03-02 05:40:00,33.1,29.9,29.74,West,278,0.0,0.0,88,0.00,,---,0.00,VWS V14.01,2013-03-02 10:40:00,
2013-03-02 05:50:00,32.8,29.9,29.73,West,278,0.0,0.0,89,0.00,,---,0.00,VWS V14.01,2013-03-02 10:50:00,
2013-03-02 06:00:00,32.5,29.9,29.74,West,278,0.0,0.0,90,0.00,,---,0.00,VWS V14.01,2013-03-02 11:00:00,
2013-03-02 06:10:00,32.2,30.1,29.74,West,278,0.0,0.0,92,0.00,,---,0.00,VWS V14.01,2013-03-02 11:10:00,
2013-03-02 06:20:00,31.8,30.0,29.74,West,278,0.0,0.0,93,0.00,,---,0.00,VWS V14.01,2013-03-02 11:20:00,
2013-03-02 06:30:00,31.3,29.8,29.74,West,278,0.0,0.0,94,0.00,,---,0.00,VWS V14.01,2013-03-02 11:30:00,
2013-03-02 06:40:00,31.0,29.5,29.74,West,278,0.0,0.0,94,0.00,,---,0.00,VWS V14.01,2013-03-02 11:40:00,
2013-03-02 06:50:00,30.6,29.6,29.75,West,278,0.0,0.0,96,0.00,,---,0.00,VWS V14.01,2013-03-02 11:50:00,
2013-03-02 07:00:00,30.4,29.6,29.75,West,278,0.0,0.0,97,0.00,,---,0.00,VWS V14.01,2013-03-02 12:00:00,
2013-03-02 07:09:00,30.3,29.5,29.75,West,278,0.0,0.0,97,0.00,,---,0.00,VWS V14.01,2013-03-02 12:09:00,
2013-03-02 07:20:00,30.4,29.9,29.75,West,278,0.0,0.0,98,0.00,,---,0.00,VWS V14.01,2013-03-02 12:20:00,
2013-03-02 07:30:00,30.9,30.9,29.75,West,278,0.0,0.0,100,0.00,,---,0.00,VWS V14.01,2013-03-02 12:30:00,
2013-03-02 07:40:00,31.3,31.3,29.75,West,278,0.0,0.0,100,0.00,,---,0.00,VWS V14.01,2013-03-02 12:40:00,
2013-03-02 07:50:00,32.1,31.6,29.75,West,278,0.0,0.0,98,0.00,,---,0.00,VWS V14.01,2013-03-02 12:50:00,
2013-03-02 08:00:00,32.8,31.8,29.76,West,278,0.0,0.0,96,0.00,,---,0.00,VWS V14.01,2013-03-02 13:00:00,
2013-03-02 08:10:00,33.5,32.0,29.76,West,278,0.0,0.0,94,0.00,,---,0.00,VWS V14.01,2013-03-02 13:10:00,
2013-03-02 08:19:00,34.3,32.5,29.76,West,278,0.0,0.0,93,0.00,,---,0.00,VWS V14.01,2013-03-02 13:19:00,
2013-03-02 08:30:00,34.9,32.5,29.77,West,274,0.0,0.0,91,0.00,,---,0.00,VWS V14.01,2013-03-02 13:30:00,
2013-03-02 08:40:00,35.6,32.7,29.77,West,274,0.0,0.0,89,0.00,,---,0.00,VWS V14.01,2013-03-02 13:40:00,
2013-03-02 08:49:00,36.2,32.4,29.76,West,274,0.0,0.0,86,0.00,,---,0.00,VWS V14.01,2013-03-02 13:49:00,
2013-03-02 08:59:00,36.9,33.1,29.76,West,274,0.0,0.0,86,0.00,,---,0.00,VWS V14.01,2013-03-02 13:59:00,
2013-03-02 09:10:00,37.6,32.6,29.76,West,274,0.0,0.0,82,0.00,,---,0.00,VWS V14.01,2013-03-02 14:10:00,
2013-03-02 09:20:00,38.6,33.0,29.75,WSW,254,0.0,0.0,80,0.00,,---,0.00,VWS V14.01,2013-03-02 14:20:00,
2013-03-02 09:30:00,40.3,33.3,29.75,West,275,0.0,5.0,76,0.00,,---,0.00,VWS V14.01,2013-03-02 14:30:00,
2013-03-02 09:40:00,42.9,33.4,29.75,NW,311,0.0,2.0,69,0.00,,---,0.00,VWS V14.01,2013-03-02 14:40:00,
2013-03-02 09:50:00,43.1,32.2,29.74,WSW,257,0.0,5.0,65,0.00,,---,0.00,VWS V14.01,2013-03-02 14:50:00,
2013-03-02 10:00:00,43.5,32.5,29.74,West,268,0.0,4.0,65,0.00,,---,0.00,VWS V14.01,2013-03-02 15:00:00,
2013-03-02 10:10:00,43.1,31.8,29.74,West,265,0.0,6.0,64,0.00,,---,0.00,VWS V14.01,2013-03-02 15:10:00,
2013-03-02 10:20:00,43.3,32.0,29.74,North,353,0.0,6.0,64,0.00,,---,0.00,VWS V14.01,2013-03-02 15:20:00,
2013-03-02 10:30:00,44.1,32.7,29.73,NNW,336,0.0,6.0,64,0.00,,---,0.00,VWS V14.01,2013-03-02 15:30:00,
2013-03-02 10:40:00,44.2,32.4,29.73,NW,320,0.0,6.0,63,0.00,,---,0.00,VWS V14.01,2013-03-02 15:40:00,
2013-03-02 10:49:00,43.9,32.5,29.73,North,359,0.0,4.0,64,0.00,,---,0.00,VWS V14.01,2013-03-02 15:49:00,
2013-03-02 10:59:00,44.1,31.9,29.73,WSW,248,0.0,2.0,62,0.00,,---,0.00,VWS V14.01,2013-03-02 15:59:00,
2013-03-02 11:09:00,44.2,32.0,29.73,SSE,150,0.0,3.0,62,0.00,,---,0.00,VWS V14.01,2013-03-02 16:09:00,
2013-03-02 11:19:00,45.4,32.3,29.72,NW,312,0.0,7.0,60,0.00,,---,0.00,VWS V14.01,2013-03-02 16:19:00,
2013-03-02 11:30:00,46.4,32.9,29.72,SW,216,4.0,9.0,59,0.00,,---,0.00,VWS V14.01,2013-03-02 16:30:00,
2013-03-02 11:40:00,46.1,32.2,29.72,WNW,287,0.0,5.0,58,0.00,,---,0.00,VWS V14.01,2013-03-02 16:40:00,
2013-03-02 11:49:00,45.7,31.8,29.72,West,281,0.0,5.0,58,0.00,,---,0.00,VWS V14.01,2013-03-02 16:49:00,
2013-03-02 12:00:00,46.7,32.7,29.71,WNW,284,6.0,6.0,58,0.00,,---,0.00,VWS V14.01,2013-03-02 17:00:00,
2013-03-02 12:10:00,46.7,31.9,29.71,WSW,237,2.0,7.0,56,0.00,,---,0.00,VWS V14.01,2013-03-02 17:10:00,
2013-03-02 12:19:00,46.1,31.3,29.71,West,281,0.0,6.0,56,0.00,,---,0.00,VWS V14.01,2013-03-02 17:19:00,
2013-03-02 12:29:00,45.8,32.3,29.70,West,277,5.0,6.0,59,0.00,,---,0.00,VWS V14.01,2013-03-02 17:29:00,
2013-03-02 12:39:00,46.7,31.9,29.70,NNE,24,0.0,6.0,56,0.00,,---,0.00,VWS V14.01,2013-03-02 17:39:00,
2013-03-02 12:50:00,47.7,32.8,29.68,WSW,244,0.0,7.0,56,0.00,,---,0.00,VWS V14.01,2013-03-02 17:50:00,
2013-03-02 13:00:00,49.2,32.8,29.68,WNW,301,1.0,11.0,53,0.00,,---,0.00,VWS V14.01,2013-03-02 18:00:00,
2013-03-02 13:10:00,47.7,32.3,29.68,NW,305,3.0,6.0,55,0.00,,---,0.00,VWS V14.01,2013-03-02 18:10:00,
2013-03-02 13:19:00,48.2,33.7,29.68,SW,233,6.0,6.0,57,0.00,,---,0.00,VWS V14.01,2013-03-02 18:19:00,
2013-03-02 13:30:00,47.7,33.2,29.68,SW,229,0.0,7.0,57,0.00,,---,0.00,VWS V14.01,2013-03-02 18:30:00,
2013-03-02 13:40:00,47.4,32.5,29.68,NW,315,0.0,10.0,56,0.00,,---,0.00,VWS V14.01,2013-03-02 18:40:00,
2013-03-02 13:50:00,48.6,32.3,29.67,WSW,248,0.0,7.0,53,0.00,,---,0.00,VWS V14.01,2013-03-02 18:50:00,
2013-03-02 14:00:00,48.5,32.6,29.67,WNW,296,0.0,10.0,54,0.00,,---,0.00,VWS V14.01,2013-03-02 19:00:00,
2013-03-02 14:09:00,47.7,32.3,29.67,NW,326,1.0,10.0,55,0.00,,---,0.00,VWS V14.01,2013-03-02 19:09:00,
2013-03-02 14:19:00,47.0,32.1,29.67,WSW,257,3.0,6.0,56,0.00,,---,0.00,VWS V14.01,2013-03-02 19:19:00,
2013-03-02 14:29:00,46.8,32.8,29.67,WSW,241,2.0,6.0,58,0.00,,---,0.00,VWS V14.01,2013-03-02 19:29:00,
2013-03-02 14:39:00,46.8,32.0,29.67,WNW,302,2.0,6.0,56,0.00,,---,0.00,VWS V14.01,2013-03-02 19:39:00,
2013-03-02 14:49:00,46.7,31.9,29.67,NNW,330,2.0,6.0,56,0.00,,---,0.00,VWS V14.01,2013-03-02 19:49:00,
2013-03-02 15:00:00,46.2,32.7,29.67,West,277,0.0,5.0,59,0.00,,---,0.00,VWS V14.01,2013-03-02 20:00:00,
2013-03-02 15:10:00,46.1,32.2,29.67,NW,313,0.0,5.0,58,0.00,,---,0.00,VWS V14.01,2013-03-02 20:10:00,
2013-03-02 15:19:00,46.0,32.1,29.66,NW,312,0.0,6.0,58,0.00,,---,0.00,VWS V14.01,2013-03-02 20:19:00,
2013-03-02 15:30:00,45.7,31.8,29.66,West,261,0.0,5.0,58,0.00,,---,0.00,VWS V14.01,2013-03-02 20:30:00,
2013-03-02 15:40:00,45.4,31.5,29.66,NW,309,2.0,6.0,58,0.00,,---,0.00,VWS V14.01,2013-03-02 20:40:00,
2013-03-02 15:50:00,45.4,32.3,29.67,West,281,0.0,2.0,60,0.00,,---,0.00,VWS V14.01,2013-03-02 20:50:00,
2013-03-02 15:59:00,46.1,33.0,29.67,West,268,0.0,3.0,60,0.00,,---,0.00,VWS V14.01,2013-03-02 20:59:00,
2013-03-02 16:10:00,46.0,32.5,29.67,WNW,287,0.0,6.0,59,0.00,,---,0.00,VWS V14.01,2013-03-02 21:10:00,
2013-03-02 16:19:00,46.0,32.1,29.67,West,275,2.0,6.0,58,0.00,,---,0.00,VWS V14.01,2013-03-02 21:19:00,
2013-03-02 16:30:00,45.7,32.6,29.67,West,271,0.0,5.0,60,0.00,,---,0.00,VWS V14.01,2013-03-02 21:30:00,
2013-03-02 16:39:00,45.8,32.3,29.67,WNW,291,0.0,4.0,59,0.00,,---,0.00,VWS V14.01,2013-03-02 21:39:00,
2013-03-02 16:49:00,45.5,32.0,29.67,WSW,248,0.0,6.0,59,0.00,,---,0.00,VWS V14.01,2013-03-02 21:49:00,
2013-03-02 16:59:00,45.1,32.5,29.67,NW,315,0.0,6.0,61,0.00,,---,0.00,VWS V14.01,2013-03-02 21:59:00,
2013-03-02 17:10:00,44.8,32.6,29.67,WNW,295,0.0,4.0,62,0.00,,---,0.00,VWS V14.01,2013-03-02 22:10:00,
2013-03-02 17:20:00,44.5,31.9,29.67,WNW,296,0.0,5.0,61,0.00,,---,0.00,VWS V14.01,2013-03-02 22:20:00,
2013-03-02 17:30:00,44.2,32.0,29.68,WNW,291,0.0,1.0,62,0.00,,---,0.00,VWS V14.01,2013-03-02 22:30:00,
2013-03-02 17:40:00,43.9,32.5,29.68,West,261,0.0,3.0,64,0.00,,---,0.00,VWS V14.01,2013-03-02 22:40:00,
2013-03-02 17:49:00,43.6,32.2,29.69,West,278,0.0,3.0,64,0.00,,---,0.00,VWS V14.01,2013-03-02 22:49:00,
2013-03-02 18:00:00,43.3,31.6,29.70,WNW,295,0.0,5.0,63,0.00,,---,0.00,VWS V14.01,2013-03-02 23:00:00,
2013-03-02 18:10:00,43.1,32.2,29.70,NW,305,0.0,1.0,65,0.00,,---,0.00,VWS V14.01,2013-03-02 23:10:00,
2013-03-02 18:19:00,42.8,31.9,29.70,NW,306,2.0,6.0,65,0.00,,---,0.00,VWS V14.01,2013-03-02 23:19:00,
2013-03-02 18:29:00,42.5,32.0,29.71,NW,323,0.0,6.0,66,0.00,,---,0.00,VWS V14.01,2013-03-02 23:29:00,
2013-03-02 18:39:00,42.2,31.7,29.71,WNW,291,0.0,5.0,66,0.00,,---,0.00,VWS V14.01,2013-03-02 23:39:00,
2013-03-02 18:49:00,41.9,31.8,29.71,NW,316,0.0,3.0,67,0.00,,---,0.00,VWS V14.01,2013-03-02 23:49:00,
2013-03-02 19:00:00,41.6,31.8,29.72,NW,316,0.0,0.0,68,0.00,,---,0.00,VWS V14.01,2013-03-03 00:00:00,
2013-03-02 19:09:00,41.5,32.1,29.72,SW,223,0.0,0.0,69,0.00,,---,0.00,VWS V14.01,2013-03-03 00:09:00,
2013-03-02 19:19:00,41.3,31.9,29.72,WNW,287,0.0,0.0,69,0.00,,---,0.00,VWS V14.01,2013-03-03 00:19:00,
2013-03-02 19:30:00,41.2,31.8,29.73,WNW,295,0.0,6.0,69,0.00,,---,0.00,VWS V14.01,2013-03-03 00:30:00,
2013-03-02 19:40:00,40.9,31.5,29.73,WNW,287,0.0,6.0,69,0.00,,---,0.00,VWS V14.01,2013-03-03 00:40:00,
2013-03-02 19:49:00,40.6,31.6,29.73,West,271,0.0,3.0,70,0.00,,---,0.00,VWS V14.01,2013-03-03 00:49:00,
2013-03-02 19:59:00,40.2,31.2,29.73,NNW,328,0.0,6.0,70,0.00,,---,0.00,VWS V14.01,2013-03-03 00:59:00,
2013-03-02 20:09:00,39.6,30.6,29.73,WNW,292,0.0,6.0,70,0.00,,---,0.00,VWS V14.01,2013-03-03 01:09:00,
2013-03-02 20:19:00,39.3,30.7,29.73,WNW,294,0.0,3.0,71,0.00,,---,0.00,VWS V14.01,2013-03-03 01:19:00,
2013-03-02 20:30:00,39.1,30.2,29.74,WSW,240,0.0,9.0,70,0.00,,---,0.00,VWS V14.01,2013-03-03 01:30:00,
2013-03-02 20:40:00,38.6,30.0,29.74,NW,320,0.0,8.0,71,0.00,,---,0.00,VWS V14.01,2013-03-03 01:40:00,
2013-03-02 20:49:00,38.5,29.6,29.75,West,261,5.0,8.0,70,0.00,,---,0.00,VWS V14.01,2013-03-03 01:49:00,
2013-03-02 21:00:00,38.2,28.9,29.76,NW,323,0.0,8.0,69,0.00,,---,0.00,VWS V14.01,2013-03-03 02:00:00,
2013-03-02 21:09:00,37.8,28.6,29.76,West,263,0.0,4.0,69,0.00,,---,0.00,VWS V14.01,2013-03-03 02:09:00,
2013-03-02 21:20:00,37.5,29.0,29.76,West,264,1.0,2.0,71,0.00,,---,0.00,VWS V14.01,2013-03-03 02:20:00,
2013-03-02 21:29:00,37.5,28.3,29.76,West,274,0.0,6.0,69,0.00,,---,0.00,VWS V14.01,2013-03-03 02:29:00,
2013-03-02 21:39:00,37.3,27.7,29.76,NW,306,0.0,10.0,68,0.00,,---,0.00,VWS V14.01,2013-03-03 02:39:00,
2013-03-02 21:49:00,37.0,27.4,29.76,NW,319,1.0,13.0,68,0.00,,---,0.00,VWS V14.01,2013-03-03 02:49:00,
2013-03-02 21:59:00,36.6,26.7,29.76,SW,223,0.0,10.0,67,0.00,,---,0.00,VWS V14.01,2013-03-03 02:59:00,
2013-03-02 22:09:00,36.3,27.1,29.76,West,272,0.0,6.0,69,0.00,,---,0.00,VWS V14.01,2013-03-03 03:09:00,
2013-03-02 22:20:00,36.0,26.8,29.77,SW,226,0.0,8.0,69,0.00,,---,0.00,VWS V14.01,2013-03-03 03:20:00,
2013-03-02 22:30:00,35.8,27.0,29.77,West,270,0.0,3.0,70,0.00,,---,0.00,VWS V14.01,2013-03-03 03:30:00,
2013-03-02 22:40:00,35.5,26.7,29.77,WSW,237,3.0,6.0,70,0.00,,---,0.00,VWS V14.01,2013-03-03 03:40:00,
2013-03-02 22:50:00,35.3,26.9,29.77,West,260,0.0,5.0,71,0.00,,---,0.00,VWS V14.01,2013-03-03 03:50:00,
2013-03-02 23:00:00,35.0,26.6,29.77,West,260,0.0,2.0,71,0.00,,---,0.00,VWS V14.01,2013-03-03 04:00:00,
2013-03-02 23:09:00,34.6,26.2,29.77,West,267,0.0,5.0,71,0.00,,---,0.00,VWS V14.01,2013-03-03 04:09:00,
2013-03-02 23:19:00,34.3,25.9,29.77,SW,232,2.0,3.0,71,0.00,,---,0.00,VWS V14.01,2013-03-03 04:19:00,
2013-03-02 23:30:00,34.0,25.9,29.77,WSW,254,0.0,3.0,72,0.00,,---,0.00,VWS V14.01,2013-03-03 04:30:00,
2013-03-02 23:39:00,33.7,25.3,29.77,WSW,257,0.0,3.0,71,0.00,,---,0.00,VWS V14.01,2013-03-03 04:39:00,
2013-03-02 23:49:00,33.5,25.1,29.77,SW,226,0.0,5.0,71,0.00,,---,0.00,VWS V14.01,2013-03-03 04:49:00,